• In Slovakia
  • List of Countries
  • For 7 days
  • Water Temperature
  • Satellite Maps
  • Weather Map
  • Weather Widgets
  • user-avatar
    Login

    Hourly Weather Wiktoria

    Today, 17 January, Wednesday

    Time Temperature Precipitation Wind Pressure Humidity
    00:00 +18°C° 0 mm 3 mps 752 mmHg 55%
    01:00 +17°C° 0 mm 2 mps 751 mmHg 58%
    02:00 +17°C° 0 mm 2 mps 751 mmHg 59%
    03:00 +16°C° 0 mm 2 mps 751 mmHg 60%
    04:00 +15°C° 0 mm 2 mps 751 mmHg 63%
    05:00 +16°C° 0 mm 2 mps 751 mmHg 58%
    06:00 +17°C° 0 mm 2 mps 752 mmHg 54%
    07:00 +18°C° 0 mm 2 mps 752 mmHg 50%
    08:00 +21°C° 0 mm 3 mps 752 mmHg 43%
    09:00 +25°C° 0 mm 3 mps 752 mmHg 37%
    10:00 +28°C° 0 mm 3 mps 752 mmHg 31%
    11:00 +30°C° 0 mm 3 mps 751 mmHg 28%
    12:00 +31°C° 0 mm 2 mps 751 mmHg 24%
    13:00 +34°C° 0 mm 2 mps 751 mmHg 21%
    14:00 +34°C° 0 mm 1 mps 750 mmHg 19%
    15:00 +35°C° 0 mm 1 mps 750 mmHg 18%
    16:00 +35°C° 0 mm 1 mps 749 mmHg 18%
    17:00 +34°C° 0 mm 1 mps 749 mmHg 20%
    18:00 +32°C° 0 mm 1 mps 749 mmHg 22%
    19:00 +31°C° 0 mm 1 mps 750 mmHg 25%
    20:00 +29°C° 0 mm 1 mps 750 mmHg 27%
    21:00 +27°C° 0 mm 1 mps 750 mmHg 28%
    22:00 +26°C° 0 mm 2 mps 750 mmHg 30%
    23:00 +25°C° 0 mm 2 mps 750 mmHg 32%

    Tomorrow, 18 January, Thursday

    Time Temperature Precipitation Wind Pressure Humidity
    00:00 +24°C° 0 mm 2 mps 750 mmHg 35%
    01:00 +23°C° 0 mm 2 mps 750 mmHg 37%
    02:00 +21°C° 0 mm 2 mps 750 mmHg 38%
    03:00 +21°C° 0 mm 2 mps 750 mmHg 40%
    04:00 +20°C° 0 mm 2 mps 750 mmHg 42%
    05:00 +21°C° 0 mm 2 mps 751 mmHg 41%
    06:00 +22°C° 0 mm 3 mps 751 mmHg 41%
    07:00 +24°C° 0 mm 3 mps 751 mmHg 40%
    08:00 +27°C° 0 mm 3 mps 751 mmHg 34%
    09:00 +30°C° 0 mm 3 mps 751 mmHg 28%
    10:00 +34°C° 0 mm 4 mps 751 mmHg 22%
    11:00 +36°C° 0 mm 3 mps 750 mmHg 19%
    12:00 +37°C° 0 mm 3 mps 750 mmHg 15%
    13:00 +39°C° 0 mm 2 mps 749 mmHg 12%
    14:00 +40°C° 0 mm 2 mps 749 mmHg 11%
    15:00 +40°C° 0 mm 2 mps 748 mmHg 10%
    16:00 +41°C° 0 mm 1 mps 748 mmHg 9%
    17:00 +39°C° 0 mm 1 mps 748 mmHg 11%
    18:00 +38°C° 0 mm 2 mps 747 mmHg 13%
    19:00 +36°C° 0 mm 2 mps 747 mmHg 15%
    20:00 +34°C° 0 mm 2 mps 748 mmHg 16%
    21:00 +31°C° 0 mm 2 mps 748 mmHg 17%
    22:00 +29°C° 0 mm 3 mps 748 mmHg 19%
    23:00 +28°C° 0 mm 3 mps 748 mmHg 19%

    Day after tomorrow, 19 January, Friday

    Time Temperature Precipitation Wind Pressure Humidity
    00:00 +27°C° 0 mm 3 mps 748 mmHg 20%
    01:00 +27°C° 0 mm 3 mps 748 mmHg 21%
    02:00 +26°C° 0 mm 3 mps 748 mmHg 22%
    03:00 +25°C° 0 mm 3 mps 748 mmHg 23%
    04:00 +24°C° 0 mm 3 mps 748 mmHg 24%
    05:00 +25°C° 0 mm 3 mps 748 mmHg 25%
    06:00 +26°C° 0 mm 3 mps 749 mmHg 26%
    07:00 +27°C° 0 mm 3 mps 749 mmHg 27%
    08:00 +30°C° 0 mm 4 mps 749 mmHg 23%
    09:00 +34°C° 0 mm 4 mps 749 mmHg 20%
    10:00 +37°C° 0 mm 4 mps 749 mmHg 16%
    11:00 +40°C° 0 mm 4 mps 748 mmHg 13%
    12:00 +42°C° 0 mm 4 mps 748 mmHg 10%
    13:00 +44°C° 0 mm 3 mps 747 mmHg 8%
    14:00 +45°C° 0 mm 3 mps 747 mmHg 7%
    15:00 +45°C° 0 mm 2 mps 746 mmHg 6%
    16:00 +45°C° 0 mm 2 mps 746 mmHg 6%
    17:00 +43°C° 0 mm 2 mps 746 mmHg 7%
    18:00 +41°C° 0 mm 2 mps 746 mmHg 9%
    19:00 +39°C° 0 mm 1 mps 745 mmHg 11%
    20:00 +37°C° 0 mm 2 mps 746 mmHg 12%
    21:00 +35°C° 0 mm 3 mps 746 mmHg 13%
    22:00 +33°C° 0 mm 3 mps 747 mmHg 14%
    23:00 +30°C° 0 mm 3 mps 746 mmHg 17%

    20 January, Saturday

    Time Temperature Precipitation Wind Pressure Humidity
    00:00 +29°C° 0 mm 3 mps 746 mmHg 20%
    01:00 +28°C° 0 mm 2 mps 746 mmHg 23%
    02:00 +27°C° 0 mm 2 mps 746 mmHg 25%
    03:00 +26°C° 0 mm 2 mps 746 mmHg 27%
    04:00 +25°C° 0 mm 3 mps 747 mmHg 29%
    05:00 +26°C° 0 mm 3 mps 747 mmHg 30%
    06:00 +27°C° 0 mm 3 mps 747 mmHg 31%
    07:00 +27°C° 0 mm 3 mps 748 mmHg 32%
    08:00 +32°C° 0 mm 4 mps 748 mmHg 27%
    09:00 +35°C° 0 mm 4 mps 748 mmHg 22%
    10:00 +38°C° 0 mm 4 mps 748 mmHg 17%
    11:00 +41°C° 0 mm 4 mps 747 mmHg 14%
    12:00 +43°C° 0 mm 3 mps 747 mmHg 11%
    13:00 +46°C° 0 mm 3 mps 746 mmHg 8%
    14:00 +46°C° 0 mm 3 mps 746 mmHg 9%
    15:00 +46°C° 0 mm 3 mps 745 mmHg 9%
    16:00 +47°C° 0 mm 4 mps 745 mmHg 10%
    17:00 +42°C° 0 mm 5 mps 745 mmHg 18%
    18:00 +39°C° 0 mm 6 mps 745 mmHg 25%
    19:00 +35°C° 0 mm 7 mps 745 mmHg 33%
    20:00 +34°C° 0 mm 6 mps 745 mmHg 36%
    21:00 +32°C° 0 mm 5 mps 745 mmHg 40%
    22:00 +30°C° 0 mm 5 mps 746 mmHg 43%
    23:00 +29°C° 0 mm 4 mps 745 mmHg 46%

    21 January, Sunday

    Time Temperature Precipitation Wind Pressure Humidity
    00:00 +28°C° 0 mm 4 mps 745 mmHg 49%
    01:00 +28°C° 0 mm 4 mps 745 mmHg 52%
    02:00 +27°C° 0.1 mm 4 mps 745 mmHg 52%
    03:00 +27°C° 0.1 mm 4 mps 745 mmHg 51%
    04:00 +27°C° 0.1 mm 4 mps 745 mmHg 51%
    05:00 +27°C° 0 mm 4 mps 745 mmHg 46%
    06:00 +28°C° 0 mm 4 mps 745 mmHg 41%
    07:00 +29°C° 0 mm 5 mps 745 mmHg 36%
    08:00 +30°C° 0.1 mm 4 mps 745 mmHg 32%
    09:00 +33°C° 0.1 mm 4 mps 745 mmHg 28%
    10:00 +35°C° 0.1 mm 3 mps 745 mmHg 24%
    11:00 +36°C° 0.1 mm 3 mps 744 mmHg 22%
    12:00 +37°C° 0.1 mm 3 mps 744 mmHg 20%
    13:00 +39°C° 0.1 mm 3 mps 743 mmHg 18%
    14:00 +39°C° 0 mm 3 mps 743 mmHg 18%
    15:00 +40°C° 0 mm 3 mps 742 mmHg 18%
    16:00 +40°C° 0 mm 2 mps 742 mmHg 18%
    17:00 +39°C° 0.1 mm 3 mps 741 mmHg 22%
    18:00 +37°C° 0.1 mm 3 mps 741 mmHg 27%
    19:00 +35°C° 0.1 mm 3 mps 741 mmHg 32%
    20:00 +33°C° 0.2 mm 4 mps 742 mmHg 38%
    21:00 +30°C° 0.2 mm 4 mps 742 mmHg 45%
    22:00 +28°C° 0.2 mm 4 mps 742 mmHg 52%
    23:00 +27°C° 0.4 mm 4 mps 742 mmHg 60%

    22 January, Monday

    Time Temperature Precipitation Wind Pressure Humidity
    00:00 +25°C° 0.4 mm 3 mps 742 mmHg 68%
    01:00 +22°C° 0.4 mm 3 mps 742 mmHg 76%
    02:00 +22°C° 0 mm 3 mps 742 mmHg 79%
    03:00 +22°C° 0 mm 3 mps 742 mmHg 81%
    04:00 +21°C° 0 mm 3 mps 742 mmHg 83%
    05:00 +22°C° 0 mm 3 mps 743 mmHg 80%
    06:00 +22°C° 0 mm 3 mps 743 mmHg 78%
    07:00 +22°C° 0 mm 3 mps 744 mmHg 75%
    08:00 +26°C° 0 mm 3 mps 744 mmHg 65%
    09:00 +28°C° 0 mm 4 mps 744 mmHg 56%
    10:00 +32°C° 0 mm 4 mps 744 mmHg 46%
    11:00 +33°C° 0 mm 4 mps 744 mmHg 41%
    12:00 +35°C° 0 mm 4 mps 743 mmHg 35%
    13:00 +36°C° 0 mm 4 mps 743 mmHg 29%
    14:00 +36°C° 0 mm 5 mps 742 mmHg 29%
    15:00 +36°C° 0 mm 5 mps 742 mmHg 28%
    16:00 +36°C° 0 mm 6 mps 742 mmHg 28%
    17:00 +34°C° 0 mm 6 mps 742 mmHg 34%
    18:00 +32°C° 0 mm 6 mps 742 mmHg 40%
    19:00 +29°C° 0 mm 7 mps 743 mmHg 46%
    20:00 +27°C° 0 mm 7 mps 743 mmHg 51%
    21:00 +24°C° 0 mm 6 mps 744 mmHg 56%
    22:00 +23°C° 0 mm 6 mps 744 mmHg 60%
    23:00 +22°C° 0 mm 6 mps 744 mmHg 63%
    Show more